Time,TemperatureF,DewpointF,PressureIn,WindDirection,WindDirectionDegrees,WindSpeedMPH,WindSpeedGustMPH,Humidity,HourlyPrecipIn,Conditions,Clouds,dailyrainin,SoftwareType,DateUTC
2013-08-26 00:04:00,66.0,39.7,29.85,North,0,0.0,0.0,38,0.00,,---,0.00,VWS V13.01,2013-08-26 04:04:00,
2013-08-26 00:09:00,66.0,39.7,29.85,North,0,0.0,0.0,38,0.00,,---,0.00,VWS V13.01,2013-08-26 04:09:00,
2013-08-26 00:14:00,66.0,39.7,29.85,North,0,0.0,0.0,38,0.00,,---,0.00,VWS V13.01,2013-08-26 04:14:00,
2013-08-26 00:19:00,66.2,39.9,29.85,North,0,0.0,0.0,38,0.00,,---,0.00,VWS V13.01,2013-08-26 04:19:00,
2013-08-26 00:24:00,66.0,39.7,29.85,North,0,0.0,0.0,38,0.00,,---,0.00,VWS V13.01,2013-08-26 04:24:00,
2013-08-26 00:29:00,65.7,40.0,29.85,North,0,0.0,0.0,39,0.00,,---,0.00,VWS V13.01,2013-08-26 04:29:00,
2013-08-26 00:34:00,65.5,40.5,29.85,North,0,0.0,0.0,40,0.00,,---,0.00,VWS V13.01,2013-08-26 04:34:00,
2013-08-26 00:39:00,65.3,41.6,29.85,North,0,0.0,0.0,42,0.00,,---,0.00,VWS V13.01,2013-08-26 04:39:00,
2013-08-26 00:44:00,65.1,42.1,29.85,North,0,0.0,0.0,43,0.00,,---,0.00,VWS V13.01,2013-08-26 04:44:00,
2013-08-26 00:49:00,64.9,41.9,29.85,North,0,0.0,0.0,43,0.00,,---,0.00,VWS V13.01,2013-08-26 04:49:00,
2013-08-26 00:54:00,64.9,41.9,29.85,North,0,0.0,0.0,43,0.00,,---,0.00,VWS V13.01,2013-08-26 04:54:00,
2013-08-26 00:59:00,65.3,42.2,29.83,North,0,0.0,0.0,43,0.00,,---,0.00,VWS V13.01,2013-08-26 04:59:00,
2013-08-26 01:04:00,65.5,42.4,29.83,North,0,0.0,0.0,43,0.00,,---,0.00,VWS V13.01,2013-08-26 05:04:00,
2013-08-26 01:09:00,65.3,42.2,29.83,North,0,0.0,0.0,43,0.00,,---,0.00,VWS V13.01,2013-08-26 05:09:00,
2013-08-26 01:14:00,65.3,42.2,29.83,North,0,0.0,0.0,43,0.00,,---,0.00,VWS V13.01,2013-08-26 05:14:00,
2013-08-26 01:19:00,65.1,42.1,29.83,North,0,0.0,0.0,43,0.00,,---,0.00,VWS V13.01,2013-08-26 05:19:00,
2013-08-26 01:29:00,64.8,42.4,29.83,North,0,0.0,0.0,44,0.00,,---,0.00,VWS V13.01,2013-08-26 05:29:00,
2013-08-26 01:34:00,64.9,42.5,29.83,North,0,0.0,0.0,44,0.00,,---,0.00,VWS V13.01,2013-08-26 05:34:00,
2013-08-26 01:39:00,65.1,42.7,29.83,North,0,0.0,0.0,44,0.00,,---,0.00,VWS V13.01,2013-08-26 05:39:00,
2013-08-26 01:44:00,65.3,42.8,29.83,North,0,0.0,0.0,44,0.00,,---,0.00,VWS V13.01,2013-08-26 05:44:00,
2013-08-26 01:49:00,65.5,42.4,29.83,North,0,0.0,0.0,43,0.00,,---,0.00,VWS V13.01,2013-08-26 05:49:00,
2013-08-26 01:54:00,65.8,41.5,29.83,North,0,0.0,0.0,41,0.00,,---,0.00,VWS V13.01,2013-08-26 05:54:00,
2013-08-26 01:59:00,66.0,41.7,29.83,North,0,0.0,0.0,41,0.00,,---,0.00,VWS V13.01,2013-08-26 05:59:00,
2013-08-26 02:04:00,66.2,40.5,29.83,North,0,0.0,0.0,39,0.00,,---,0.00,VWS V13.01,2013-08-26 06:04:00,
2013-08-26 02:09:00,66.4,40.0,29.83,North,0,0.0,0.0,38,0.00,,---,0.00,VWS V13.01,2013-08-26 06:09:00,
2013-08-26 02:14:00,66.4,39.3,29.83,North,0,0.0,0.0,37,0.00,,---,0.00,VWS V13.01,2013-08-26 06:14:00,
2013-08-26 02:19:00,66.4,40.0,29.83,North,0,0.0,0.0,38,0.00,,---,0.00,VWS V13.01,2013-08-26 06:19:00,
2013-08-26 02:24:00,66.2,39.9,29.83,North,0,0.0,0.0,38,0.00,,---,0.00,VWS V13.01,2013-08-26 06:24:00,
2013-08-26 02:29:00,66.0,40.4,29.83,North,0,0.0,0.0,39,0.00,,---,0.00,VWS V13.01,2013-08-26 06:29:00,
2013-08-26 02:34:00,65.7,40.7,29.83,North,0,0.0,0.0,40,0.00,,---,0.00,VWS V13.01,2013-08-26 06:34:00,
2013-08-26 02:39:00,65.5,41.8,29.83,North,0,0.0,0.0,42,0.00,,---,0.00,VWS V13.01,2013-08-26 06:39:00,
2013-08-26 02:44:00,65.5,41.8,29.83,North,0,0.0,0.0,42,0.00,,---,0.00,VWS V13.01,2013-08-26 06:44:00,
2013-08-26 02:49:00,65.7,41.3,29.83,North,0,0.0,0.0,41,0.00,,---,0.00,VWS V13.01,2013-08-26 06:49:00,
2013-08-26 02:54:00,65.7,41.3,29.83,North,0,0.0,0.0,41,0.00,,---,0.00,VWS V13.01,2013-08-26 06:54:00,
2013-08-26 03:04:00,65.3,41.6,29.80,North,0,0.0,0.0,42,0.00,,---,0.00,VWS V13.01,2013-08-26 07:04:00,
2013-08-26 03:09:00,65.1,41.5,29.80,North,0,0.0,0.0,42,0.00,,---,0.00,VWS V13.01,2013-08-26 07:09:00,
2013-08-26 03:14:00,65.3,41.6,29.80,North,0,0.0,0.0,42,0.00,,---,0.00,VWS V13.01,2013-08-26 07:14:00,
2013-08-26 03:19:00,65.5,41.8,29.80,North,0,0.0,0.0,42,0.00,,---,0.00,VWS V13.01,2013-08-26 07:19:00,
2013-08-26 03:24:00,65.5,41.8,29.80,North,0,0.0,0.0,42,0.00,,---,0.00,VWS V13.01,2013-08-26 07:24:00,
2013-08-26 03:29:00,65.5,41.8,29.80,North,0,0.0,0.0,42,0.00,,---,0.00,VWS V13.01,2013-08-26 07:29:00,
2013-08-26 03:34:00,65.5,41.8,29.80,North,0,0.0,0.0,42,0.00,,---,0.00,VWS V13.01,2013-08-26 07:34:00,
2013-08-26 03:39:00,65.7,41.3,29.80,North,0,0.0,0.0,41,0.00,,---,0.00,VWS V13.01,2013-08-26 07:39:00,
2013-08-26 03:44:00,65.7,40.7,29.80,North,0,0.0,0.0,40,0.00,,---,0.00,VWS V13.01,2013-08-26 07:44:00,
2013-08-26 03:49:00,65.7,40.7,29.80,North,0,0.0,0.0,40,0.00,,---,0.00,VWS V13.01,2013-08-26 07:49:00,
2013-08-26 03:54:00,65.7,40.7,29.80,North,0,0.0,0.0,40,0.00,,---,0.00,VWS V13.01,2013-08-26 07:54:00,
2013-08-26 03:59:00,65.7,40.0,29.80,North,0,0.0,0.0,39,0.00,,---,0.00,VWS V13.01,2013-08-26 07:59:00,
2013-08-26 04:04:00,65.7,40.0,29.80,North,0,0.0,0.0,39,0.00,,---,0.00,VWS V13.01,2013-08-26 08:04:00,
2013-08-26 04:09:00,65.7,40.0,29.80,North,0,0.0,0.0,39,0.00,,---,0.00,VWS V13.01,2013-08-26 08:09:00,
2013-08-26 04:14:00,65.7,40.0,29.80,North,0,0.0,0.0,39,0.00,,---,0.00,VWS V13.01,2013-08-26 08:14:00,
2013-08-26 04:19:00,65.8,40.2,29.80,North,0,0.0,0.0,39,0.00,,---,0.00,VWS V13.01,2013-08-26 08:19:00,
2013-08-26 04:24:00,65.7,40.0,29.80,North,0,0.0,0.0,39,0.00,,---,0.00,VWS V13.01,2013-08-26 08:24:00,
2013-08-26 04:29:00,65.7,40.0,29.80,North,0,0.0,0.0,39,0.00,,---,0.00,VWS V13.01,2013-08-26 08:29:00,
2013-08-26 04:34:00,65.8,40.2,29.80,North,0,0.0,0.0,39,0.00,,---,0.00,VWS V13.01,2013-08-26 08:34:00,
2013-08-26 04:39:00,65.8,40.2,29.80,North,0,0.0,0.0,39,0.00,,---,0.00,VWS V13.01,2013-08-26 08:39:00,
2013-08-26 04:44:00,65.8,40.2,29.80,North,0,0.0,0.0,39,0.00,,---,0.00,VWS V13.01,2013-08-26 08:44:00,
2013-08-26 04:49:00,65.8,40.2,29.80,North,0,0.0,0.0,39,0.00,,---,0.00,VWS V13.01,2013-08-26 08:49:00,
2013-08-26 04:54:00,65.8,40.2,29.80,North,0,0.0,0.0,39,0.00,,---,0.00,VWS V13.01,2013-08-26 08:54:00,
2013-08-26 05:04:00,65.8,41.5,29.80,North,0,0.0,0.0,41,0.00,,---,0.00,VWS V13.01,2013-08-26 09:04:00,
2013-08-26 05:09:00,65.8,40.9,29.80,North,0,0.0,0.0,40,0.00,,---,0.00,VWS V13.01,2013-08-26 09:09:00,
2013-08-26 05:19:00,65.8,40.9,29.80,North,0,0.0,0.0,40,0.00,,---,0.00,VWS V13.01,2013-08-26 09:19:00,
2013-08-26 05:24:00,65.7,41.3,29.80,North,0,0.0,0.0,41,0.00,,---,0.00,VWS V13.01,2013-08-26 09:24:00,
2013-08-26 05:29:00,65.7,42.0,29.80,North,0,0.0,0.0,42,0.00,,---,0.00,VWS V13.01,2013-08-26 09:29:00,
2013-08-26 05:34:00,65.7,42.6,29.80,North,0,0.0,0.0,43,0.00,,---,0.00,VWS V13.01,2013-08-26 09:34:00,
2013-08-26 05:39:00,65.5,43.0,29.80,North,0,0.0,0.0,44,0.00,,---,0.00,VWS V13.01,2013-08-26 09:39:00,
2013-08-26 05:44:00,65.1,43.3,29.77,North,0,0.0,0.0,45,0.00,,---,0.00,VWS V13.01,2013-08-26 09:44:00,
2013-08-26 05:49:00,65.1,45.0,29.77,North,0,0.0,0.0,48,0.00,,---,0.00,VWS V13.01,2013-08-26 09:49:00,
2013-08-26 05:54:00,64.9,45.3,29.77,North,0,0.0,0.0,49,0.00,,---,0.00,VWS V13.01,2013-08-26 09:54:00,
2013-08-26 05:59:00,64.8,45.7,29.80,North,0,0.0,0.0,50,0.00,,---,0.00,VWS V13.01,2013-08-26 09:59:00,
2013-08-26 06:09:00,64.2,48.2,29.80,North,0,0.0,0.0,56,0.00,,---,0.00,VWS V13.01,2013-08-26 10:09:00,
2013-08-26 06:14:00,64.0,48.5,29.77,North,0,0.0,0.0,57,0.00,,---,0.00,VWS V13.01,2013-08-26 10:14:00,
2013-08-26 06:19:00,63.7,48.6,29.77,North,0,0.0,0.0,58,0.00,,---,0.00,VWS V13.01,2013-08-26 10:19:00,
2013-08-26 06:24:00,63.7,49.1,29.77,North,0,0.0,0.0,59,0.00,,---,0.00,VWS V13.01,2013-08-26 10:24:00,
2013-08-26 06:29:00,63.9,49.7,29.77,North,0,0.0,0.0,60,0.00,,---,0.00,VWS V13.01,2013-08-26 10:29:00,
2013-08-26 06:34:00,64.0,49.9,29.77,North,0,0.0,0.0,60,0.00,,---,0.00,VWS V13.01,2013-08-26 10:34:00,
2013-08-26 06:39:00,64.2,49.6,29.77,North,0,0.0,0.0,59,0.00,,---,0.00,VWS V13.01,2013-08-26 10:39:00,
2013-08-26 06:44:00,64.0,48.5,29.77,North,0,0.0,0.0,57,0.00,,---,0.00,VWS V13.01,2013-08-26 10:44:00,
2013-08-26 06:49:00,63.9,48.8,29.77,North,0,0.0,0.0,58,0.00,,---,0.00,VWS V13.01,2013-08-26 10:49:00,
2013-08-26 06:54:00,63.9,49.3,29.77,North,0,0.0,0.0,59,0.00,,---,0.00,VWS V13.01,2013-08-26 10:54:00,
2013-08-26 06:59:00,64.0,49.4,29.77,North,0,0.0,0.0,59,0.00,,---,0.00,VWS V13.01,2013-08-26 10:59:00,
2013-08-26 07:04:00,64.2,49.6,29.77,North,0,0.0,0.0,59,0.00,,---,0.00,VWS V13.01,2013-08-26 11:04:00,
2013-08-26 07:09:00,64.0,50.3,29.77,North,0,0.0,0.0,61,0.00,,---,0.00,VWS V13.01,2013-08-26 11:09:00,
2013-08-26 07:14:00,63.9,48.8,29.77,North,0,0.0,0.0,58,0.00,,---,0.00,VWS V13.01,2013-08-26 11:14:00,
2013-08-26 07:24:00,64.2,50.1,29.77,North,0,0.0,0.0,60,0.00,,---,0.00,VWS V13.01,2013-08-26 11:24:00,
2013-08-26 07:29:00,64.6,50.0,29.77,North,0,0.0,0.0,59,0.00,,---,0.00,VWS V13.01,2013-08-26 11:29:00,
2013-08-26 07:34:00,64.9,49.8,29.77,North,0,0.0,0.0,58,0.00,,---,0.00,VWS V13.01,2013-08-26 11:34:00,
2013-08-26 07:39:00,65.1,50.0,29.77,North,0,0.0,0.0,58,0.00,,---,0.00,VWS V13.01,2013-08-26 11:39:00,
2013-08-26 07:44:00,65.3,49.7,29.77,North,0,0.0,0.0,57,0.00,,---,0.00,VWS V13.01,2013-08-26 11:44:00,
2013-08-26 07:49:00,65.5,49.4,29.77,North,0,0.0,0.0,56,0.00,,---,0.00,VWS V13.01,2013-08-26 11:49:00,
2013-08-26 07:54:00,65.5,47.9,29.77,North,0,0.0,0.0,53,0.00,,---,0.00,VWS V13.01,2013-08-26 11:54:00,
2013-08-26 07:59:00,65.5,46.4,29.77,North,0,0.0,0.0,50,0.00,,---,0.00,VWS V13.01,2013-08-26 11:59:00,
2013-08-26 08:04:00,65.8,48.8,29.77,North,0,0.0,0.0,54,0.00,,---,0.00,VWS V13.01,2013-08-26 12:04:00,
2013-08-26 08:09:00,66.0,47.9,29.77,North,0,0.0,0.0,52,0.00,,---,0.00,VWS V13.01,2013-08-26 12:09:00,
2013-08-26 08:14:00,66.0,46.9,29.77,North,0,0.0,0.0,50,0.00,,---,0.00,VWS V13.01,2013-08-26 12:14:00,
2013-08-26 08:19:00,66.0,45.8,29.77,North,0,0.0,0.0,48,0.00,,---,0.00,VWS V13.01,2013-08-26 12:19:00,
2013-08-26 08:29:00,66.6,47.4,29.77,North,0,0.0,0.0,50,0.00,,---,0.00,VWS V13.01,2013-08-26 12:29:00,
2013-08-26 08:34:00,66.9,47.7,29.77,North,0,0.0,0.0,50,0.00,,---,0.00,VWS V13.01,2013-08-26 12:34:00,
2013-08-26 08:39:00,67.3,47.5,29.77,North,0,0.0,0.0,49,0.00,,---,0.00,VWS V13.01,2013-08-26 12:39:00,
2013-08-26 08:44:00,67.5,44.2,29.77,North,0,0.0,0.0,43,0.00,,---,0.00,VWS V13.01,2013-08-26 12:44:00,
2013-08-26 08:49:00,67.6,43.8,29.77,North,0,0.0,0.0,42,0.00,,---,0.00,VWS V13.01,2013-08-26 12:49:00,
2013-08-26 08:54:00,67.8,43.9,29.77,North,0,0.0,0.0,42,0.00,,---,0.00,VWS V13.01,2013-08-26 12:54:00,
2013-08-26 08:59:00,67.8,43.9,29.77,North,0,0.0,0.0,42,0.00,,---,0.00,VWS V13.01,2013-08-26 12:59:00,
2013-08-26 09:04:00,67.8,43.9,29.77,North,0,0.0,0.0,42,0.00,,---,0.00,VWS V13.01,2013-08-26 13:04:00,
2013-08-26 09:09:00,68.0,42.8,29.77,North,0,0.0,0.0,40,0.00,,---,0.00,VWS V13.01,2013-08-26 13:09:00,
2013-08-26 09:14:00,68.2,41.6,29.74,North,0,0.0,0.0,38,0.00,,---,0.00,VWS V13.01,2013-08-26 13:14:00,
2013-08-26 09:19:00,68.2,42.3,29.74,North,0,0.0,0.0,39,0.00,,---,0.00,VWS V13.01,2013-08-26 13:19:00,
2013-08-26 09:29:00,68.5,43.3,29.74,North,0,0.0,0.0,40,0.00,,---,0.00,VWS V13.01,2013-08-26 13:29:00,
2013-08-26 09:34:00,68.5,42.0,29.74,North,0,0.0,0.0,38,0.00,,---,0.00,VWS V13.01,2013-08-26 13:34:00,
2013-08-26 09:39:00,68.5,42.0,29.74,North,0,0.0,0.0,38,0.00,,---,0.00,VWS V13.01,2013-08-26 13:39:00,
2013-08-26 09:44:00,68.7,42.8,29.74,North,0,0.0,0.0,39,0.00,,---,0.00,VWS V13.01,2013-08-26 13:44:00,
2013-08-26 09:49:00,68.9,42.3,29.74,North,0,0.0,0.0,38,0.00,,---,0.00,VWS V13.01,2013-08-26 13:49:00,
2013-08-26 09:54:00,69.1,43.1,29.74,North,0,0.0,0.0,39,0.00,,---,0.00,VWS V13.01,2013-08-26 13:54:00,
2013-08-26 09:59:00,69.6,42.2,29.74,North,0,0.0,0.0,37,0.00,,---,0.00,VWS V13.01,2013-08-26 13:59:00,
2013-08-26 10:04:00,70.3,42.2,29.74,North,0,0.0,0.0,36,0.00,,---,0.00,VWS V13.01,2013-08-26 14:04:00,
2013-08-26 10:09:00,70.7,41.0,29.74,North,0,0.0,0.0,34,0.00,,---,0.00,VWS V13.01,2013-08-26 14:09:00,
2013-08-26 10:14:00,70.9,40.4,29.74,North,0,0.0,0.0,33,0.00,,---,0.00,VWS V13.01,2013-08-26 14:14:00,
2013-08-26 10:19:00,71.2,41.5,29.74,North,0,0.0,0.0,34,0.00,,---,0.00,VWS V13.01,2013-08-26 14:19:00,
2013-08-26 10:24:00,71.4,40.8,29.74,North,0,0.0,0.0,33,0.00,,---,0.00,VWS V13.01,2013-08-26 14:24:00,
2013-08-26 10:29:00,71.4,40.8,29.74,North,0,0.0,0.0,33,0.00,,---,0.00,VWS V13.01,2013-08-26 14:29:00,
2013-08-26 10:34:00,71.4,40.8,29.74,North,0,0.0,0.0,33,0.00,,---,0.00,VWS V13.01,2013-08-26 14:34:00,
2013-08-26 10:39:00,71.4,41.6,29.74,North,0,0.0,0.0,34,0.00,,---,0.00,VWS V13.01,2013-08-26 14:39:00,
2013-08-26 10:44:00,71.6,41.0,29.74,North,0,0.0,0.0,33,0.00,,---,0.00,VWS V13.01,2013-08-26 14:44:00,
2013-08-26 10:49:00,71.8,41.2,29.74,North,0,0.0,0.0,33,0.00,,---,0.00,VWS V13.01,2013-08-26 14:49:00,
2013-08-26 10:54:00,72.0,41.3,29.74,North,0,0.0,0.0,33,0.00,,---,0.00,VWS V13.01,2013-08-26 14:54:00,
2013-08-26 10:59:00,72.1,41.5,29.74,North,0,0.0,0.0,33,0.00,,---,0.00,VWS V13.01,2013-08-26 14:59:00,
2013-08-26 11:04:00,72.1,40.7,29.74,North,0,0.0,0.0,32,0.00,,---,0.00,VWS V13.01,2013-08-26 15:04:00,
2013-08-26 11:09:00,72.1,41.5,29.74,North,0,0.0,0.0,33,0.00,,---,0.00,VWS V13.01,2013-08-26 15:09:00,
2013-08-26 11:14:00,72.3,41.6,29.74,North,0,0.0,0.0,33,0.00,,---,0.00,VWS V13.01,2013-08-26 15:14:00,
2013-08-26 11:19:00,72.7,41.2,29.74,North,0,0.0,0.0,32,0.00,,---,0.00,VWS V13.01,2013-08-26 15:19:00,
2013-08-26 11:24:00,73.2,41.6,29.74,North,0,0.0,0.0,32,0.00,,---,0.00,VWS V13.01,2013-08-26 15:24:00,
2013-08-26 11:34:00,74.1,41.6,29.74,North,0,0.0,0.0,31,0.00,,---,0.00,VWS V13.01,2013-08-26 15:34:00,
2013-08-26 11:39:00,74.1,41.6,29.74,North,0,0.0,0.0,31,0.00,,---,0.00,VWS V13.01,2013-08-26 15:39:00,
2013-08-26 11:44:00,74.3,41.7,29.71,North,0,0.0,0.0,31,0.00,,---,0.00,VWS V13.01,2013-08-26 15:44:00,
2013-08-26 11:49:00,74.3,41.7,29.71,North,0,0.0,0.0,31,0.00,,---,0.00,VWS V13.01,2013-08-26 15:49:00,
2013-08-26 11:54:00,74.8,42.2,29.71,North,0,0.0,0.0,31,0.00,,---,0.00,VWS V13.01,2013-08-26 15:54:00,
2013-08-26 11:59:00,75.2,42.5,29.71,North,0,0.0,0.0,31,0.00,,---,0.00,VWS V13.01,2013-08-26 15:59:00,
2013-08-26 12:04:00,75.7,41.3,29.71,North,0,0.0,0.0,29,0.00,,---,0.00,VWS V13.01,2013-08-26 16:04:00,
2013-08-26 12:09:00,76.1,42.5,29.71,North,0,0.0,0.0,30,0.00,,---,0.00,VWS V13.01,2013-08-26 16:09:00,
2013-08-26 12:14:00,76.6,42.9,29.71,North,0,0.0,0.0,30,0.00,,---,0.00,VWS V13.01,2013-08-26 16:14:00,
2013-08-26 12:19:00,76.8,41.3,29.71,North,0,0.0,0.0,28,0.00,,---,0.00,VWS V13.01,2013-08-26 16:19:00,
2013-08-26 12:24:00,77.0,40.5,29.71,North,0,0.0,0.0,27,0.00,,---,0.00,VWS V13.01,2013-08-26 16:24:00,
2013-08-26 12:29:00,77.0,40.5,29.71,North,0,0.0,0.0,27,0.00,,---,0.00,VWS V13.01,2013-08-26 16:29:00,
2013-08-26 12:34:00,77.2,40.7,29.71,North,0,0.0,0.0,27,0.00,,---,0.00,VWS V13.01,2013-08-26 16:34:00,
2013-08-26 12:39:00,77.5,41.0,29.71,North,0,0.0,0.0,27,0.00,,---,0.00,VWS V13.01,2013-08-26 16:39:00,
2013-08-26 12:44:00,77.5,39.0,29.71,North,0,0.0,0.0,25,0.00,,---,0.00,VWS V13.01,2013-08-26 16:44:00,
2013-08-26 12:49:00,77.7,40.1,29.71,North,0,0.0,0.0,26,0.00,,---,0.00,VWS V13.01,2013-08-26 16:49:00,
2013-08-26 12:54:00,77.5,40.0,29.71,North,0,0.0,0.0,26,0.00,,---,0.00,VWS V13.01,2013-08-26 16:54:00,
2013-08-26 12:59:00,77.2,39.7,29.71,North,0,0.0,0.0,26,0.00,,---,0.00,VWS V13.01,2013-08-26 16:59:00,
2013-08-26 13:04:00,76.8,41.3,29.71,North,0,0.0,0.0,28,0.00,,---,0.00,VWS V13.01,2013-08-26 17:04:00,
2013-08-26 13:09:00,77.0,41.4,29.71,North,0,0.0,0.0,28,0.00,,---,0.00,VWS V13.01,2013-08-26 17:09:00,
2013-08-26 13:14:00,77.5,42.8,29.68,North,0,0.0,0.0,29,0.00,,---,0.00,VWS V13.01,2013-08-26 17:14:00,
2013-08-26 13:19:00,77.9,41.3,29.68,North,0,0.0,0.0,27,0.00,,---,0.00,VWS V13.01,2013-08-26 17:19:00,
2013-08-26 13:24:00,77.9,39.3,29.68,North,0,0.0,0.0,25,0.00,,---,0.00,VWS V13.01,2013-08-26 17:24:00,
2013-08-26 13:29:00,77.5,40.0,29.68,North,0,0.0,0.0,26,0.00,,---,0.00,VWS V13.01,2013-08-26 17:29:00,
2013-08-26 13:34:00,77.0,40.5,29.68,North,0,0.0,0.0,27,0.00,,---,0.00,VWS V13.01,2013-08-26 17:34:00,
2013-08-26 13:39:00,76.6,42.0,29.68,North,0,0.0,0.0,29,0.00,,---,0.00,VWS V13.01,2013-08-26 17:39:00,
2013-08-26 13:44:00,76.3,41.7,29.68,North,0,0.0,0.0,29,0.00,,---,0.00,VWS V13.01,2013-08-26 17:44:00,
2013-08-26 13:49:00,75.7,42.1,29.68,North,0,0.0,0.0,30,0.00,,---,0.00,VWS V13.01,2013-08-26 17:49:00,
2013-08-26 13:54:00,75.4,42.7,29.68,North,0,0.0,0.0,31,0.00,,---,0.00,VWS V13.01,2013-08-26 17:54:00,
2013-08-26 13:59:00,75.2,43.3,29.68,North,0,0.0,0.0,32,0.00,,---,0.00,VWS V13.01,2013-08-26 17:59:00,
2013-08-26 14:04:00,75.0,44.0,29.68,North,0,0.0,0.0,33,0.00,,---,0.00,VWS V13.01,2013-08-26 18:04:00,
2013-08-26 14:09:00,74.7,45.2,29.68,North,0,0.0,0.0,35,0.00,,---,0.00,VWS V13.01,2013-08-26 18:09:00,
2013-08-26 14:14:00,74.5,45.8,29.65,North,0,0.0,0.0,36,0.00,,---,0.00,VWS V13.01,2013-08-26 18:14:00,
2013-08-26 14:19:00,74.3,46.4,29.65,North,0,0.0,0.0,37,0.00,,---,0.00,VWS V13.01,2013-08-26 18:19:00,
2013-08-26 14:24:00,74.3,46.4,29.65,North,0,0.0,0.0,37,0.00,,---,0.00,VWS V13.01,2013-08-26 18:24:00,
2013-08-26 14:29:00,74.1,46.9,29.65,North,0,0.0,0.0,38,0.00,,---,0.00,VWS V13.01,2013-08-26 18:29:00,
2013-08-26 14:34:00,74.3,47.1,29.65,North,0,0.0,0.0,38,0.00,,---,0.00,VWS V13.01,2013-08-26 18:34:00,
2013-08-26 14:39:00,74.5,47.2,29.65,North,0,0.0,0.0,38,0.00,,---,0.00,VWS V13.01,2013-08-26 18:39:00,
2013-08-26 14:44:00,74.5,47.2,29.65,North,0,0.0,0.0,38,0.00,,---,0.00,VWS V13.01,2013-08-26 18:44:00,
2013-08-26 14:49:00,74.5,48.6,29.65,North,0,0.0,0.0,40,0.00,,---,0.00,VWS V13.01,2013-08-26 18:49:00,
2013-08-26 14:54:00,74.5,49.3,29.65,North,0,0.0,0.0,41,0.00,,---,0.00,VWS V13.01,2013-08-26 18:54:00,
2013-08-26 15:04:00,74.1,50.2,29.65,North,0,0.0,0.0,43,0.00,,---,0.00,VWS V13.01,2013-08-26 19:04:00,
2013-08-26 15:09:00,73.6,49.7,29.65,North,0,0.0,0.0,43,0.00,,---,0.00,VWS V13.01,2013-08-26 19:09:00,
2013-08-26 15:14:00,73.2,49.4,29.65,North,0,0.0,0.0,43,0.00,,---,0.00,VWS V13.01,2013-08-26 19:14:00,
2013-08-26 15:19:00,73.0,50.5,29.65,North,0,0.0,0.0,45,0.00,,---,0.00,VWS V13.01,2013-08-26 19:19:00,
2013-08-26 15:24:00,73.0,50.5,29.65,North,0,0.0,0.0,45,0.00,,---,0.00,VWS V13.01,2013-08-26 19:24:00,
2013-08-26 15:29:00,73.2,50.6,29.65,North,0,0.0,0.0,45,0.00,,---,0.00,VWS V13.01,2013-08-26 19:29:00,
2013-08-26 15:34:00,73.8,50.5,29.65,North,0,0.0,0.0,44,0.00,,---,0.00,VWS V13.01,2013-08-26 19:34:00,
2013-08-26 15:39:00,74.8,50.2,29.65,North,0,0.0,0.0,42,0.00,,---,0.00,VWS V13.01,2013-08-26 19:39:00,
2013-08-26 15:44:00,75.6,49.6,29.65,North,0,0.0,0.0,40,0.00,,---,0.00,VWS V13.01,2013-08-26 19:44:00,
2013-08-26 15:49:00,75.9,47.1,29.65,North,0,0.0,0.0,36,0.00,,---,0.00,VWS V13.01,2013-08-26 19:49:00,
2013-08-26 15:54:00,75.9,45.6,29.65,North,0,0.0,0.0,34,0.00,,---,0.00,VWS V13.01,2013-08-26 19:54:00,
2013-08-26 15:59:00,75.9,46.3,29.62,North,0,0.0,0.0,35,0.00,,---,0.00,VWS V13.01,2013-08-26 19:59:00,
2013-08-26 16:04:00,75.7,46.2,29.62,North,0,0.0,0.0,35,0.00,,---,0.00,VWS V13.01,2013-08-26 20:04:00,
2013-08-26 16:09:00,75.7,45.4,29.62,North,0,0.0,0.0,34,0.00,,---,0.00,VWS V13.01,2013-08-26 20:09:00,
2013-08-26 16:19:00,75.6,46.0,29.62,North,0,0.0,0.0,35,0.00,,---,0.00,VWS V13.01,2013-08-26 20:19:00,
2013-08-26 16:24:00,75.6,46.8,29.62,North,0,0.0,0.0,36,0.00,,---,0.00,VWS V13.01,2013-08-26 20:24:00,
2013-08-26 16:29:00,75.4,46.6,29.62,North,0,0.0,0.0,36,0.00,,---,0.00,VWS V13.01,2013-08-26 20:29:00,
2013-08-26 16:34:00,75.4,47.3,29.62,North,0,0.0,0.0,37,0.00,,---,0.00,VWS V13.01,2013-08-26 20:34:00,
2013-08-26 16:39:00,75.4,47.3,29.62,North,0,0.0,0.0,37,0.00,,---,0.00,VWS V13.01,2013-08-26 20:39:00,
2013-08-26 16:44:00,75.9,48.5,29.62,North,0,0.0,0.0,38,0.00,,---,0.00,VWS V13.01,2013-08-26 20:44:00,
2013-08-26 16:49:00,76.3,47.4,29.62,North,0,0.0,0.0,36,0.00,,---,0.00,VWS V13.01,2013-08-26 20:49:00,
2013-08-26 16:54:00,76.1,48.0,29.62,North,0,0.0,0.0,37,0.00,,---,0.00,VWS V13.01,2013-08-26 20:54:00,
2013-08-26 16:59:00,75.9,47.1,29.62,North,0,0.0,0.0,36,0.00,,---,0.00,VWS V13.01,2013-08-26 20:59:00,
2013-08-26 17:04:00,75.7,47.7,29.62,North,0,0.0,0.0,37,0.00,,---,0.00,VWS V13.01,2013-08-26 21:04:00,
2013-08-26 17:14:00,75.4,48.0,29.62,North,0,0.0,0.0,38,0.00,,---,0.00,VWS V13.01,2013-08-26 21:14:00,
2013-08-26 17:19:00,75.2,48.6,29.62,North,0,0.0,0.0,39,0.00,,---,0.00,VWS V13.01,2013-08-26 21:19:00,
2013-08-26 17:24:00,74.8,48.9,29.62,North,0,0.0,0.0,40,0.00,,---,0.00,VWS V13.01,2013-08-26 21:24:00,
2013-08-26 17:29:00,74.8,48.9,29.62,North,0,0.0,0.0,40,0.00,,---,0.00,VWS V13.01,2013-08-26 21:29:00,
2013-08-26 17:34:00,74.7,50.1,29.62,North,0,0.0,0.0,42,0.00,,---,0.00,VWS V13.01,2013-08-26 21:34:00,
2013-08-26 17:39:00,74.1,50.2,29.62,North,0,0.0,0.0,43,0.00,,---,0.00,VWS V13.01,2013-08-26 21:39:00,
2013-08-26 17:44:00,73.8,50.5,29.62,North,0,0.0,0.0,44,0.00,,---,0.00,VWS V13.01,2013-08-26 21:44:00,
2013-08-26 17:49:00,73.6,51.5,29.62,North,0,0.0,0.0,46,0.00,,---,0.00,VWS V13.01,2013-08-26 21:49:00,
2013-08-26 17:54:00,73.2,52.9,29.62,North,0,0.0,0.0,49,0.00,,---,0.00,VWS V13.01,2013-08-26 21:54:00,
2013-08-26 17:59:00,73.0,54.4,29.62,North,0,0.0,0.0,52,0.00,,---,0.00,VWS V13.01,2013-08-26 21:59:00,
2013-08-26 18:04:00,72.7,54.6,29.62,North,0,0.0,0.0,53,0.00,,---,0.00,VWS V13.01,2013-08-26 22:04:00,
2013-08-26 18:09:00,72.7,54.6,29.62,North,0,0.0,0.0,53,0.00,,---,0.00,VWS V13.01,2013-08-26 22:09:00,
2013-08-26 18:14:00,72.7,55.1,29.59,North,0,0.0,0.0,54,0.00,,---,0.00,VWS V13.01,2013-08-26 22:14:00,
2013-08-26 18:19:00,72.5,55.9,29.59,North,0,0.0,0.0,56,0.00,,---,0.00,VWS V13.01,2013-08-26 22:19:00,
2013-08-26 18:24:00,72.3,56.2,29.59,North,0,0.0,0.0,57,0.00,,---,0.00,VWS V13.01,2013-08-26 22:24:00,
2013-08-26 18:29:00,72.1,58.0,29.59,North,0,0.0,0.0,61,0.00,,---,0.00,VWS V13.01,2013-08-26 22:29:00,
2013-08-26 18:34:00,72.1,58.4,29.59,North,0,0.0,0.0,62,0.00,,---,0.00,VWS V13.01,2013-08-26 22:34:00,
2013-08-26 18:39:00,72.1,58.4,29.59,North,0,0.0,0.0,62,0.00,,---,0.00,VWS V13.01,2013-08-26 22:39:00,
2013-08-26 18:44:00,72.3,59.0,29.59,North,0,0.0,0.0,63,0.00,,---,0.00,VWS V13.01,2013-08-26 22:44:00,
2013-08-26 18:49:00,72.1,59.3,29.59,North,0,0.0,0.0,64,0.00,,---,0.00,VWS V13.01,2013-08-26 22:49:00,
2013-08-26 18:54:00,72.1,58.9,29.59,North,0,0.0,0.0,63,0.00,,---,0.00,VWS V13.01,2013-08-26 22:54:00,
2013-08-26 18:59:00,72.1,58.9,29.59,North,0,0.0,0.0,63,0.00,,---,0.00,VWS V13.01,2013-08-26 22:59:00,
2013-08-26 19:04:00,72.0,58.7,29.59,North,0,0.0,0.0,63,0.00,,---,0.00,VWS V13.01,2013-08-26 23:04:00,
2013-08-26 19:09:00,72.0,58.7,29.59,North,0,0.0,0.0,63,0.00,,---,0.00,VWS V13.01,2013-08-26 23:09:00,
2013-08-26 19:14:00,72.0,58.7,29.59,North,0,0.0,0.0,63,0.00,,---,0.00,VWS V13.01,2013-08-26 23:14:00,
2013-08-26 19:19:00,72.0,59.1,29.59,North,0,0.0,0.0,64,0.00,,---,0.00,VWS V13.01,2013-08-26 23:19:00,
2013-08-26 19:24:00,72.0,59.1,29.59,North,0,0.0,0.0,64,0.00,,---,0.00,VWS V13.01,2013-08-26 23:24:00,
2013-08-26 19:29:00,72.0,59.1,29.59,North,0,0.0,0.0,64,0.00,,---,0.00,VWS V13.01,2013-08-26 23:29:00,
2013-08-26 19:34:00,72.0,59.1,29.59,North,0,0.0,0.0,64,0.00,,---,0.00,VWS V13.01,2013-08-26 23:34:00,
2013-08-26 19:39:00,72.0,59.1,29.59,North,0,0.0,0.0,64,0.00,,---,0.00,VWS V13.01,2013-08-26 23:39:00,
2013-08-26 19:44:00,71.8,59.0,29.59,North,0,0.0,0.0,64,0.00,,---,0.00,VWS V13.01,2013-08-26 23:44:00,
2013-08-26 19:54:00,71.8,59.4,29.59,North,0,0.0,0.0,65,0.00,,---,0.00,VWS V13.01,2013-08-26 23:54:00,
2013-08-26 19:59:00,71.6,59.2,29.59,North,0,0.0,0.0,65,0.00,,---,0.00,VWS V13.01,2013-08-26 23:59:00,
2013-08-26 20:09:00,71.4,60.3,29.59,North,0,0.0,0.0,68,0.00,,---,0.00,VWS V13.01,2013-08-27 00:09:00,
2013-08-26 20:14:00,71.4,60.3,29.59,North,0,0.0,0.0,68,0.00,,---,0.00,VWS V13.01,2013-08-27 00:14:00,
2013-08-26 20:19:00,71.4,60.7,29.59,North,0,0.0,0.0,69,0.00,,---,0.00,VWS V13.01,2013-08-27 00:19:00,
2013-08-26 20:24:00,71.4,60.7,29.59,North,0,0.0,0.0,69,0.00,,---,0.00,VWS V13.01,2013-08-27 00:24:00,
2013-08-26 20:29:00,71.4,60.7,29.59,North,0,0.0,0.0,69,0.04,,---,0.04,VWS V13.01,2013-08-27 00:29:00,
2013-08-26 20:34:00,71.2,60.6,29.59,North,0,0.0,0.0,69,0.08,,---,0.08,VWS V13.01,2013-08-27 00:34:00,
2013-08-26 20:39:00,71.2,61.0,29.59,North,0,0.0,0.0,70,0.08,,---,0.08,VWS V13.01,2013-08-27 00:39:00,
2013-08-26 20:44:00,71.1,61.6,29.59,North,0,0.0,0.0,72,0.08,,---,0.08,VWS V13.01,2013-08-27 00:44:00,
2013-08-26 20:49:00,71.1,62.4,29.59,North,0,0.0,0.0,74,0.08,,---,0.08,VWS V13.01,2013-08-27 00:49:00,
2013-08-26 20:54:00,71.1,62.4,29.59,North,0,0.0,0.0,74,0.08,,---,0.08,VWS V13.01,2013-08-27 00:54:00,
2013-08-26 20:59:00,71.1,62.0,29.59,North,0,0.0,0.0,73,0.08,,---,0.08,VWS V13.01,2013-08-27 00:59:00,
2013-08-26 21:04:00,71.1,62.0,29.59,North,0,0.0,0.0,73,0.08,,---,0.08,VWS V13.01,2013-08-27 01:04:00,
2013-08-26 21:09:00,71.1,62.0,29.59,North,0,0.0,0.0,73,0.08,,---,0.08,VWS V13.01,2013-08-27 01:09:00,
2013-08-26 21:14:00,71.1,62.0,29.59,North,0,0.0,0.0,73,0.08,,---,0.08,VWS V13.01,2013-08-27 01:14:00,
2013-08-26 21:19:00,71.1,62.0,29.59,North,0,0.0,0.0,73,0.08,,---,0.08,VWS V13.01,2013-08-27 01:19:00,
2013-08-26 21:24:00,71.1,62.0,29.59,North,0,0.0,0.0,73,0.08,,---,0.08,VWS V13.01,2013-08-27 01:24:00,
2013-08-26 21:29:00,71.1,62.4,29.59,North,0,0.0,0.0,74,0.08,,---,0.08,VWS V13.01,2013-08-27 01:29:00,
2013-08-26 21:34:00,71.1,62.4,29.59,North,0,0.0,0.0,74,0.04,,---,0.08,VWS V13.01,2013-08-27 01:34:00,
2013-08-26 21:39:00,70.9,63.0,29.59,North,0,0.0,0.0,76,0.00,,---,0.08,VWS V13.01,2013-08-27 01:39:00,
2013-08-26 21:44:00,70.7,62.8,29.59,North,0,0.0,0.0,76,0.00,,---,0.08,VWS V13.01,2013-08-27 01:44:00,
2013-08-26 21:54:00,70.7,63.1,29.59,North,0,0.0,0.0,77,0.00,,---,0.08,VWS V13.01,2013-08-27 01:54:00,
2013-08-26 21:59:00,70.7,63.5,29.59,North,0,0.0,0.0,78,0.00,,---,0.08,VWS V13.01,2013-08-27 01:59:00,
2013-08-26 22:04:00,70.7,63.5,29.59,North,0,0.0,0.0,78,0.00,,---,0.08,VWS V13.01,2013-08-27 02:04:00,
2013-08-26 22:09:00,70.9,63.3,29.59,North,0,0.0,0.0,77,0.00,,---,0.08,VWS V13.01,2013-08-27 02:09:00,
2013-08-26 22:14:00,70.9,63.3,29.59,North,0,0.0,0.0,77,0.00,,---,0.08,VWS V13.01,2013-08-27 02:14:00,
2013-08-26 22:19:00,70.9,63.3,29.59,North,0,0.0,0.0,77,0.04,,---,0.12,VWS V13.01,2013-08-27 02:19:00,
2013-08-26 22:24:00,70.9,63.3,29.59,North,0,0.0,0.0,77,0.04,,---,0.12,VWS V13.01,2013-08-27 02:24:00,
2013-08-26 22:29:00,70.9,63.7,29.59,North,0,0.0,0.0,78,0.04,,---,0.12,VWS V13.01,2013-08-27 02:29:00,
2013-08-26 22:34:00,70.9,63.7,29.59,North,0,0.0,0.0,78,0.04,,---,0.12,VWS V13.01,2013-08-27 02:34:00,
2013-08-26 22:39:00,70.9,63.3,29.59,North,0,0.0,0.0,77,0.04,,---,0.12,VWS V13.01,2013-08-27 02:39:00,
2013-08-26 22:44:00,70.9,63.3,29.59,North,0,0.0,0.0,77,0.04,,---,0.12,VWS V13.01,2013-08-27 02:44:00,
2013-08-26 22:49:00,70.9,63.3,29.59,North,0,0.0,0.0,77,0.04,,---,0.12,VWS V13.01,2013-08-27 02:49:00,
2013-08-26 22:54:00,70.7,63.1,29.59,North,0,0.0,0.0,77,0.04,,---,0.12,VWS V13.01,2013-08-27 02:54:00,
2013-08-26 23:04:00,70.7,63.1,29.59,North,0,0.0,0.0,77,0.08,,---,0.16,VWS V13.01,2013-08-27 03:04:00,
2013-08-26 23:09:00,70.7,63.1,29.59,North,0,0.0,0.0,77,0.08,,---,0.16,VWS V13.01,2013-08-27 03:09:00,
2013-08-26 23:14:00,70.7,63.1,29.56,North,0,0.0,0.0,77,0.08,,---,0.16,VWS V13.01,2013-08-27 03:14:00,
2013-08-26 23:19:00,70.5,63.0,29.56,North,0,0.0,0.0,77,0.08,,---,0.16,VWS V13.01,2013-08-27 03:19:00,
2013-08-26 23:24:00,70.5,63.3,29.56,North,0,0.0,0.0,78,0.04,,---,0.16,VWS V13.01,2013-08-27 03:24:00,
2013-08-26 23:29:00,70.5,63.3,29.56,North,0,0.0,0.0,78,0.04,,---,0.16,VWS V13.01,2013-08-27 03:29:00,
2013-08-26 23:34:00,70.3,63.5,29.56,North,0,0.0,0.0,79,0.04,,---,0.16,VWS V13.01,2013-08-27 03:34:00,
2013-08-26 23:39:00,70.2,63.7,29.56,North,0,0.0,0.0,80,0.04,,---,0.16,VWS V13.01,2013-08-27 03:39:00,
2013-08-26 23:44:00,70.0,63.9,29.56,North,0,0.0,0.0,81,0.04,,---,0.16,VWS V13.01,2013-08-27 03:44:00,
2013-08-26 23:49:00,70.0,63.9,29.56,North,0,0.0,0.0,81,0.04,,---,0.16,VWS V13.01,2013-08-27 03:49:00,
2013-08-26 23:54:00,70.0,63.9,29.56,North,0,0.0,0.0,81,0.04,,---,0.16,VWS V13.01,2013-08-27 03:54:00,
2013-08-26 23:59:00,70.0,63.9,29.56,North,0,0.0,0.0,81,0.04,,---,0.00,VWS V13.01,2013-08-27 03:59:00,